EHI
0 0 0 0 0 0 0 0 0 0 0 0 0 0 0 0 0 0 0 0 0 0 0 0 0 0 0 0 0 0 0 0 0 1 2 2 2 2
0 0 0 0 0 0 0 0 0 0 0 0 0 0 0 0 0 0 0 0 0 0 0 0 0 0 0 0 0 0 0 0 0 0 1 1 1 1
0 0 0 0 0 0 0 0 0 0 0 0 0 0 0 0 0 0 0 0 0 0 0 0 0 0 0 0 0 0 0 0 0 0 0 0 0 0
0 0 0 0 0 0 0 0 0 0 0 0 0 0 0 0 0 0 0 0 0 0 0 0 0 0 0 0 0 0 0 0 0 0 0 0 0 0
0 0 0 0 0 0 0 0 0 0 0 0 0 0 0 0 0 0 0 0 0 0 0 0 0 0 0 0 0 0 0 0 0 0 0 0 0 0
0 0 0 0 0 0 0 0 0 0 0 0 0 0 0 0 0 0 0 0 0 0 0 0 0 0 0 0 0 0 0 0 0 0 0 0 0 0
0 0 0 0 0 0 0 0 0 0 0 0 0 0 0 0 0 0 0 0 0 0 0 0 0 0 0 0 0 0 0 0 0 0 0 0 0 0
0 0 0 0 0 0 0 0 0 0 0 0 0 0 0 0 0 0 0 0 0 0 0 0 0 0 0 0 0 0 0 0 0 0 0 0 0 0
0 0 0 0 0 0 0 0 0 0 0 0 0 0 0 0 0 0 0 0 0 0 0 0 0 0 0 0 0 0 0 0 0 0 0 0 0 0
0 0 0 0 0 0 0 0 0 0 0 0 0 0 0 0 0 0 0 0 0 0 0 0 0 0 0 0 0 0 0 0 0 0 0 0 0 0
0 0 0 0 0 0 0 0 0 0 0 0 0 0 0 0 0 0 0 0 0 0 0 0 0 0 0 0 0 0 0 0 0 0 0 0 0 0
0 0 0 0 0 0 0 0 0 0 0 0 0 0 0 0 0 0 0 0 0 0 0 0 0 0 0 0 0 0 0 0 0 0 0 0 0 0
0 0 0 0 0 0 0 0 0 0 0 0 0 0 0 0 0 0 0 0 0 0 0 0 0 0 0 0 0 0 0 0 0 0 0 0 0 0
0 0 0 0 0 0 0 0 0 0 0 0 0 0 0 0 0 0 0 0 0 0 0 0 0 0 0 0 0 0 0 0 0 0 0 0 0 0
0 0 0 0 0 0 0 0 0 0 0 0 0 0 0 0 0 0 0 0 0 0 0 0 0 0 0 0 0 0 0 0 0 0 0 0 0 0
0 0 0 0 0 0 0 0 0 0 0 0 0 0 0 0 0 0 0 0 0 0 0 0 0 0 0 0 0 0 0 0 0 0 0 0 0 0
0 0 0 0 0 0 0 0 0 0 0 0 0 0 0 0 0 0 0 0 0 0 0 0 0 0 0 0 0 0 0 0 0 0 0 0 0 0
0 0 0 0 0 0 0 0 0 0 0 0 0 0 0 0 0 0 0 0 0 0 0 0 0 0 0 0 0 0 0 0 0 0 0 0 0 0
0 0 0 0 0 0 0 0 0 0 0 0 0 0 0 0 0 0 0 0 0 0 0 0 0 0 0 0 0 0 0 0 0 0 0 0 0 0
0 0 0 0 0 0 0 0 0 0 0 0 0 0 0 0 0 0 0 0 0 0 0 0 0 0 0 0 0 0 0 0 0 0 0 0 0 0
0 0 0 0 0 0 0 0 0 0 0 0 0 0 0 0 0 0 0 0 0 0 0 0 0 0 0 0 0 0 0 0 0 0 0 0 0 0
0 0 0 0 0 0 0 0 0 0 0 0 0 0 0 0 0 0 0 0 0 0 0 0 0 0 0 0 0 0 0 0 0 0 0 0 0 0
0 0 0 0 0 0 0 0 0 0 0 0 0 0 0 0 0 0 0 0 0 0 0 0 0 0 0 0 0 0 0 0 0 0 0 0 0 0
Wind_Speed
5 6 5 5 5 5 5 5 4 3 3 3 2 1 1 2 3 2 3 4 4 2 2 3 4 4 5 5 5 5 5 6 7 9 9 10 12 15
4 5 5 4 4 5 5 5 6 5 4 2 2 2 2 1 2 3 4 7 7 5 5 6 7 7 7 6 5 5 4 4 5 6 6 7 8 10
4 5 6 5 4 5 5 5 6 5 6 4 2 2 1 1 1 3 4 4 5 9 9 10 10 10 10 9 8 7 6 5 4 4 4 4 4 5
5 5 6 5 6 5 5 6 6 6 6 6 3 2 2 2 3 4 4 5 6 11 13 13 13 12 12 12 11 10 8 8 7 6 6 5 5 4
6 6 6 6 6 5 6 6 6 6 6 5 4 2 1 2 3 4 6 5 6 9 13 13 14 14 14 13 13 12 12 12 11 11 10 9 9 9
6 6 7 7 8 7 6 7 6 6 6 5 4 3 2 3 4 5 5 4 5 6 9 10 13 16 15 14 14 15 14 14 14 14 15 15 15 15
6 6 7 9 10 8 7 7 7 6 6 6 5 4 4 5 5 4 6 6 5 4 6 6 6 7 8 11 14 16 15 15 16 16 17 17 17 18
7 6 7 9 11 12 12 12 11 9 8 7 6 7 7 6 6 7 8 7 4 2 5 6 5 7 6 6 11 14 15 16 16 17 17 18 18 18
7 6 6 6 8 7 9 11 12 13 12 9 9 9 9 9 10 10 7 5 5 6 6 6 5 7 6 7 12 13 14 15 16 16 16 17 17 17
8 8 7 8 7 8 8 8 8 9 11 10 9 8 8 9 10 9 10 9 8 4 3 5 4 5 6 6 10 12 13 13 14 14 15 15 15 15
8 7 8 8 9 10 9 8 8 7 8 9 9 9 11 13 13 11 11 11 8 3 2 4 5 5 5 6 7 11 11 12 12 13 13 13 13 13
6 6 9 9 9 11 10 9 9 7 7 7 8 10 12 14 16 13 12 12 10 5 3 5 6 5 5 3 4 4 7 9 10 11 11 10 9 8
5 5 5 8 10 11 10 8 9 7 7 8 8 9 9 9 8 7 7 10 10 5 7 6 5 3 5 5 3 3 4 5 5 6 8 9 7 6
6 5 4 7 9 10 8 7 9 9 6 7 8 8 9 8 8 8 7 6 4 7 9 6 5 5 7 7 5 4 3 3 4 4 4 6 8 8
5 6 6 6 6 6 7 9 10 7 7 8 8 7 7 8 9 8 9 8 9 8 6 4 7 7 7 7 7 5 4 3 3 4 3 3 3 3
5 5 6 5 4 4 5 7 6 6 7 7 7 7 7 8 9 8 8 8 8 5 5 5 7 9 7 7 7 7 5 5 4 3 3 3 2 2
5 3 3 3 4 4 4 5 5 6 6 6 8 8 8 8 8 7 7 7 6 6 5 4 5 6 6 7 7 6 5 4 4 4 3 3 2 3
5 4 4 4 4 5 6 6 6 7 7 8 8 8 9 9 8 6 6 7 7 7 6 6 7 6 5 5 3 6 5 4 4 4 3 3 3 3
4 4 4 4 4 5 6 6 6 7 8 8 9 9 8 9 9 8 7 7 7 7 6 7 7 7 7 6 3 2 5 4 4 4 4 4 3 3
3 4 4 4 4 5 6 7 8 8 8 8 9 9 9 9 9 9 8 9 8 7 6 6 6 7 7 6 5 3 4 5 5 5 4 3 2 2
3 3 4 4 5 5 6 7 8 8 9 8 8 9 9 9 8 8 8 10 9 7 8 6 3 5 5 5 4 3 3 4 4 4 5 4 3 3
3 4 4 5 6 6 7 7 8 8 9 8 8 8 8 8 9 10 9 9 7 7 7 5 5 4 3 4 4 4 4 3 4 5 6 5 4 5
4 5 5 6 6 6 7 8 9 8 8 8 8 8 8 7 7 8 8 8 7 7 7 5 4 3 2 3 3 3 4 4 3 4 6 11 13 13
Wind_Direction
226 223 222 218 205 207 206 202 218 262 278 266 270 299 332 345 344 356 3 15 28 58 112 128 141 152 159 171 177 181 196 208 213 215 217 221 224 226
225 227 229 224 213 207 207 208 210 225 253 248 248 278 312 345 29 41 52 53 56 69 89 105 108 109 111 116 120 129 150 169 181 193 203 212 220 223
236 227 231 225 217 214 208 207 211 215 243 254 240 255 261 181 76 69 63 62 65 72 82 88 92 96 98 98 98 101 108 114 119 130 143 165 188 208
240 233 232 223 222 217 212 214 215 213 225 246 236 223 229 170 128 105 88 79 75 75 79 80 81 83 85 85 85 85 86 87 88 92 101 110 120 127
239 236 236 227 230 224 218 219 218 217 216 227 227 207 204 161 129 107 97 87 82 81 77 76 79 80 79 80 82 82 81 81 81 81 83 85 88 92
239 236 236 230 230 228 223 220 214 216 214 217 216 206 190 165 145 135 117 92 83 78 76 74 76 76 77 81 84 84 80 79 80 80 79 78 79 81
243 241 241 238 234 227 221 216 207 210 209 209 207 198 185 172 164 145 129 114 81 81 87 69 70 71 70 75 82 86 84 82 81 81 80 79 79 79
245 250 252 250 243 234 226 216 207 206 207 206 205 200 191 173 154 149 143 138 120 112 97 77 70 73 67 74 83 87 86 85 85 85 84 83 82 81
238 246 255 249 238 235 228 220 218 217 212 208 206 201 185 172 161 158 157 137 123 140 115 91 74 75 69 77 86 88 89 89 89 87 86 85 84 82
236 239 246 251 239 226 223 219 220 219 216 215 214 202 183 170 164 153 138 114 101 95 96 104 95 84 76 74 79 90 92 92 92 91 90 88 86 83
238 240 240 246 237 218 215 215 216 218 215 210 200 182 167 159 149 139 139 136 129 117 91 109 123 105 82 71 73 85 93 94 95 95 95 94 93 90
240 243 238 240 237 215 214 211 210 203 183 173 170 163 162 158 157 157 153 149 141 137 155 128 144 130 104 76 78 95 96 91 92 93 96 97 98 100
233 240 240 234 229 218 214 213 204 182 173 166 158 154 153 155 155 149 150 153 150 138 156 140 145 126 120 126 105 95 112 116 107 96 90 87 85 98
226 231 238 232 222 212 210 205 182 170 165 157 152 151 151 150 147 139 125 112 103 130 146 138 134 141 133 133 130 126 113 113 117 114 109 99 87 83
223 225 231 226 212 206 204 186 175 172 162 157 152 146 140 137 131 122 109 99 93 105 121 122 131 137 137 137 139 143 139 133 135 135 130 126 123 121
217 218 214 213 205 182 172 177 180 169 158 150 138 127 124 131 135 136 134 129 117 99 63 92 135 138 133 131 140 144 148 150 155 153 142 136 136 143
180 185 190 187 185 174 170 166 160 150 139 133 132 132 132 130 131 135 136 133 129 139 127 90 83 91 105 136 145 148 147 147 157 156 161 169 182 191
173 187 192 188 180 175 165 153 152 149 140 134 134 134 136 136 133 136 143 145 141 141 138 137 134 121 106 69 94 153 155 154 155 164 176 189 203 204
185 195 191 180 171 165 156 149 145 140 136 135 134 134 134 136 138 141 144 143 140 139 142 150 155 152 157 155 126 151 163 153 157 171 190 203 219 213
197 187 177 167 158 149 145 140 135 132 130 130 130 133 137 138 139 142 145 145 142 137 141 154 165 165 169 163 152 153 171 163 170 180 184 200 237 268
180 174 162 149 140 136 135 134 133 131 130 130 132 135 138 137 137 139 138 141 142 147 156 157 130 115 106 115 128 147 170 191 180 177 174 185 206 218
161 155 146 136 134 136 134 133 130 129 132 132 134 136 138 139 140 142 146 151 153 151 142 124 130 137 141 160 164 160 163 173 203 218 218 209 199 209
142 139 136 136 137 139 135 136 135 134 135 136 137 140 141 140 142 146 151 152 146 140 134 135 145 155 156 166 171 172 178 184 195 213 232 230 235 250